Columbus, OH

2:24 AM EST on February 06, 2016 (GMT -0500)
Rickenbacker International

Weather History for KLCK - August, 2013

Change the Weather History Date:

Saturday, August 17, 2013

  Actual Average Record
Temperature  
Mean Temperature 70 °F -  
Max Temperature 81 °F 82 °F 95 °F (1999)
Min Temperature 58 °F 62 °F 55 °F (2004)
Cooling Degree Days 4    
Growing Degree Days 20 (Base 50)    
Moisture  
Dew Point 55 °F    
Average Humidity 62    
Maximum Humidity 80    
Minimum Humidity 38    
Precipitation  
Precipitation 0.00 in - - ()
Sea Level Pressure  
Sea Level Pressure 30.18 in    
Wind  
Wind Speed 5 mph (ENE)    
Max Wind Speed 9 mph    
Max Gust Speed -    
Visibility 10 miles    
Events      
Averages and records for this station are not official NWS values.
T = Trace of Precipitation, MM = Missing Value Source: NWS Daily Summary

Daily Weather History Graph

Daily Weather History Graph

Search for Another Location

Airport or City:

Trip Planner

Search our weather history database for the weather conditions in past years. The results will help you decide how hot, cold, wet, or windy it might be!

Date:

Astronomy

Aug. 17, 2013 Rise Set
Actual Time 6:45 AM EDT 8:24 PM EDT
Civil Twilight 6:17 AM EDT 8:53 PM EDT
Nautical Twilight 5:42 AM EDT 9:28 PM EDT
Astronomical Twilight 5:05 AM EDT 10:05 PM EDT
Moon 5:39 PM EDT (8/17) 2:48 AM EDT (8/17)
Length of Visible Light 14h 36m
Length of Day
13h 39m
Waxing Gibbous, 84% of the Moon is Illuminated
Aug 17
Waxing Gibbous
Aug 20
Full
Aug 28
Last Quarter
Sep 5
New
Sep 12
First Quarter

Hourly Weather History & Observations

Time (EDT) Temp. Heat Index Dew Point Humidity Pressure Visibility Wind Dir Wind Speed Gust Speed Precip Events Conditions
12:15 AM 62.8 °F - 52.3 °F 69% 30.18 in 10.0 mi ENE 4.6 mph - N/A   Clear
12:35 AM 62.1 °F - 52.2 °F 70% 30.18 in 10.0 mi NE 4.6 mph - N/A   Clear
12:55 AM 61.0 °F - 52.3 °F 73% 30.18 in 10.0 mi NE 5.8 mph - N/A   Clear
1:15 AM 60.6 °F - 52.3 °F 74% 30.18 in 10.0 mi NNE 5.8 mph - N/A   Clear
1:35 AM 61.2 °F - 52.3 °F 73% 30.18 in 10.0 mi NE 6.9 mph - N/A   Mostly Cloudy
1:55 AM 61.3 °F - 52.9 °F 74% 30.18 in 10.0 mi NNE 5.8 mph - N/A   Overcast
2:15 AM 61.7 °F - 52.9 °F 73% 30.18 in 10.0 mi NE 4.6 mph - N/A   Mostly Cloudy
2:35 AM 62.1 °F - 52.7 °F 71% 30.18 in 10.0 mi NNE 5.8 mph - N/A   Mostly Cloudy
2:55 AM 61.7 °F - 52.7 °F 72% 30.18 in 10.0 mi NNE 5.8 mph - N/A   Mostly Cloudy
3:15 AM 61.0 °F - 52.2 °F 73% 30.18 in 10.0 mi NNE 5.8 mph - N/A   Scattered Clouds
3:35 AM 60.8 °F - 52.2 °F 73% 30.18 in 10.0 mi NE 6.9 mph - N/A   Scattered Clouds
3:55 AM 60.8 °F - 52.2 °F 73% 30.18 in 10.0 mi NE 6.9 mph - N/A   Mostly Cloudy
4:15 AM 60.8 °F - 52.2 °F 73% 30.19 in 10.0 mi NNE 5.8 mph - N/A   Mostly Cloudy
4:35 AM 61.0 °F - 52.3 °F 73% 30.18 in 10.0 mi NNE 5.8 mph - N/A   Mostly Cloudy
4:55 AM 61.0 °F - 52.3 °F 73% 30.19 in 10.0 mi NE 6.9 mph - N/A   Mostly Cloudy
5:15 AM 60.8 °F - 52.2 °F 73% 30.18 in 10.0 mi NNE 6.9 mph - N/A   Scattered Clouds
5:35 AM 60.8 °F - 52.2 °F 73% 30.19 in 10.0 mi NNE 5.8 mph - N/A   Clear
5:55 AM 60.6 °F - 52.2 °F 74% 30.19 in 10.0 mi NNE 5.8 mph - N/A   Clear
6:15 AM 59.9 °F - 52.2 °F 76% 30.19 in 10.0 mi NNE 6.9 mph - N/A   Clear
6:35 AM 59.2 °F - 52.2 °F 78% 30.19 in 10.0 mi NNE 5.8 mph - N/A   Clear
6:55 AM 58.6 °F - 52.0 °F 79% 30.20 in 10.0 mi ENE 4.6 mph - N/A   Clear
7:15 AM 58.1 °F - 52.0 °F 80% 30.20 in 10.0 mi NE 4.6 mph - N/A   Clear
7:35 AM 59.2 °F - 52.5 °F 79% 30.20 in 10.0 mi NE 3.5 mph - N/A   Clear
7:55 AM 60.1 °F - 53.1 °F 78% 30.21 in 10.0 mi ENE 4.6 mph - N/A   Clear
8:15 AM 61.0 °F - 53.4 °F 76% 30.20 in 10.0 mi ENE 5.8 mph - N/A   Clear
8:35 AM 61.7 °F - 53.8 °F 75% 30.20 in 10.0 mi ENE 6.9 mph - N/A   Clear
8:55 AM 62.6 °F - 54.1 °F 74% 30.20 in 10.0 mi ENE 5.8 mph - N/A   Clear
9:15 AM 64.0 °F - 54.5 °F 71% 30.21 in 10.0 mi ENE 6.9 mph - N/A   Clear
9:35 AM 65.1 °F - 54.9 °F 69% 30.21 in 10.0 mi ENE 4.6 mph - N/A   Clear
9:55 AM 65.7 °F - 55.0 °F 69% 30.20 in 10.0 mi ENE 5.8 mph - N/A   Clear
10:15 AM 66.7 °F - 55.6 °F 67% 30.21 in 10.0 mi ENE 4.6 mph - N/A   Clear
10:35 AM 68.5 °F - 56.1 °F 64% 30.21 in 10.0 mi ENE 3.5 mph - N/A   Clear
10:55 AM 70.2 °F - 57.2 °F 63% 30.21 in 10.0 mi ENE 3.5 mph - N/A   Clear
11:15 AM 71.2 °F - 57.6 °F 62% 30.21 in 10.0 mi Calm Calm - N/A   Clear
11:35 AM 72.9 °F - 57.9 °F 59% 30.21 in 10.0 mi Calm Calm - N/A   Clear
11:55 AM 73.9 °F - 57.7 °F 57% 30.21 in 10.0 mi NE 3.5 mph - N/A   Clear
12:15 PM 75.4 °F - 57.9 °F 54% 30.21 in 10.0 mi NE 4.6 mph - N/A   Clear
12:35 PM 76.8 °F - 57.2 °F 51% 30.20 in 10.0 mi ENE 8.1 mph - N/A   Clear
12:55 PM 77.9 °F - 57.6 °F 49% 30.20 in 10.0 mi East 3.5 mph - N/A   Clear
1:15 PM 77.7 °F - 57.4 °F 49% 30.19 in 10.0 mi Calm Calm - N/A   Scattered Clouds
1:35 PM 78.8 °F - 57.6 °F 48% 30.19 in 10.0 mi NE 6.9 mph - N/A   Scattered Clouds
1:55 PM 78.8 °F - 57.6 °F 48% 30.19 in 10.0 mi East 5.8 mph - N/A   Mostly Cloudy
2:15 PM 79.5 °F - 56.8 °F 46% 30.19 in 10.0 mi ENE 3.5 mph - N/A   Scattered Clouds
2:35 PM 80.2 °F 80.4 °F 56.5 °F 44% 30.18 in 10.0 mi NE 3.5 mph - N/A   Scattered Clouds
2:55 PM 80.4 °F 80.4 °F 55.2 °F 42% 30.18 in 10.0 mi ENE 5.8 mph - N/A   Scattered Clouds
3:15 PM 80.4 °F 80.3 °F 54.7 °F 41% 30.17 in 10.0 mi East 8.1 mph - N/A   Scattered Clouds
3:35 PM 80.4 °F 80.2 °F 54.0 °F 40% 30.17 in 10.0 mi ENE 5.8 mph - N/A   Scattered Clouds
3:55 PM 81.3 °F 80.7 °F 53.8 °F 38% 30.16 in 10.0 mi ESE 3.5 mph - N/A   Scattered Clouds
4:15 PM 81.5 °F 80.9 °F 54.3 °F 39% 30.16 in 10.0 mi East 8.1 mph - N/A   Scattered Clouds
4:35 PM 81.1 °F 80.7 °F 54.1 °F 39% 30.15 in 10.0 mi NE 5.8 mph - N/A   Scattered Clouds
4:55 PM 80.1 °F 80.2 °F 55.9 °F 43% 30.15 in 10.0 mi East 3.5 mph - N/A   Scattered Clouds
5:15 PM 80.2 °F 80.2 °F 54.9 °F 41% 30.16 in 10.0 mi East 9.2 mph - N/A   Clear
5:35 PM 80.6 °F 80.4 °F 54.9 °F 41% 30.16 in 10.0 mi East 9.2 mph - N/A   Clear
5:55 PM 80.4 °F 80.4 °F 55.6 °F 42% 30.16 in 10.0 mi East 4.6 mph - N/A   Clear
6:15 PM 79.9 °F - 55.0 °F 42% 30.16 in 10.0 mi East 9.2 mph - N/A   Scattered Clouds
6:35 PM 78.6 °F - 55.6 °F 45% 30.16 in 10.0 mi East 6.9 mph - N/A   Clear
6:55 PM 78.1 °F - 56.7 °F 48% 30.15 in 10.0 mi ENE 6.9 mph - N/A   Scattered Clouds
7:15 PM 78.3 °F - 57.0 °F 48% 30.16 in 10.0 mi East 5.8 mph - N/A   Scattered Clouds
7:35 PM 77.9 °F - 57.0 °F 48% 30.16 in 10.0 mi ENE 5.8 mph - N/A   Scattered Clouds
7:55 PM 76.5 °F - 57.2 °F 51% 30.16 in 10.0 mi East 4.6 mph - N/A   Scattered Clouds
8:15 PM 75.0 °F - 57.9 °F 55% 30.16 in 10.0 mi East 4.6 mph - N/A   Clear
8:35 PM 73.4 °F - 57.7 °F 58% 30.17 in 10.0 mi ENE 6.9 mph - N/A   Clear
8:55 PM 72.1 °F - 57.4 °F 60% 30.17 in 10.0 mi East 5.8 mph - N/A   Clear
9:15 PM 70.9 °F - 57.0 °F 61% 30.17 in 10.0 mi East 5.8 mph - N/A   Clear
9:35 PM 70.0 °F - 56.5 °F 62% 30.18 in 10.0 mi East 5.8 mph - N/A   Clear
9:55 PM 68.7 °F - 56.3 °F 64% 30.18 in 10.0 mi East 5.8 mph - N/A   Clear
10:15 PM 67.6 °F - 56.3 °F 67% 30.18 in 10.0 mi East 5.8 mph - N/A   Clear
10:35 PM 67.1 °F - 56.1 °F 68% 30.18 in 10.0 mi East 4.6 mph - N/A   Clear
10:55 PM 66.9 °F - 56.1 °F 68% 30.17 in 10.0 mi Calm Calm - N/A   Clear
11:15 PM 66.2 °F - 55.9 °F 69% 30.17 in 10.0 mi NE 3.5 mph - N/A   Clear
11:35 PM 65.8 °F - 55.9 °F 70% 30.16 in 10.0 mi NE 3.5 mph - N/A   Clear
11:55 PM 64.4 °F - 55.8 °F 73% 30.17 in 10.0 mi Calm Calm - N/A   Clear